Tracking 18852 objects as of 23-Nov-2017
HD Live streaming from Space Station
objects crossing your sky now

FENGYUN 1C DEB

Track FENGYUN 1C DEB now!
10-day predictions


NORAD ID: 33707
Int'l Code: 1999-025DGU
Perigee: 600.9 km
Apogee: 755.1 km
Inclination: 99.1 °
Period: 98.2 minutes
Semi major axis: 7048 km
RCS: 0.0075 m2 (small)
Launch date: May 10, 1999
Source: People's Republic of China (PRC)
Launch site: Taiyaun Space Center, China (TSC)

Note: This is SATELLITE DEBRIS
aabbcc
Your satellite tracking list
Your tracking list is empty




NASA's NSSDC Master Catalog

Two Line Element Set (TLE):
1 33707U 99025DGU 17325.22573815 +.00001353 +00000-0 +23224-3 0  9994
2 33707 099.0898 322.0590 0109320 302.5079 056.5594 14.66940638547666
Source of the keplerian elements: AFSPC